This demonstration page uses our WeatherBlox Daily Observations layout. Learn more.

Hourly Observations for March 1, 2017

Temp ( °F °C ) Dew Point ( °F °C ) Humidity (%) Winds ( mph kmh ) Pressure ( in mb ) Visibility ( mi km ) Precip ( " mm )
12:15 am 00:15 Clear 29 -1.6 18 -8 62 62 WNW 5 7 30 1016 10 16.0934 0 0
12:35 am 00:35 Clear 28 -2 18 -8 64 64 WNW 7 11 30 1016 10 16.0934 0 0
12:55 am 00:55 Clear 28 -2.5 18 -7.9 67 67 W 7 11 30 1016 10 16.0934 0 0
1:15 am 01:15 Clear 28 -2.3 18 -7.8 66 66 WNW 8 13 30.03 1017 10 16.0934 0 0
1:35 am 01:35 Clear 28 -2.5 17 -8.1 66 66 W 9 15 30.03 1017 10 16.0934 0 0
1:55 am 01:55 Clear 26 -3.1 17 -8.3 68 68 W 9 15 30.03 1017 10 16.0934 0 0
2:15 am 02:15 Clear 27 -2.8 17 -8.6 65 65 W 12 19 30.03 1017 10 16.0934 0 0
2:35 am 02:35 Clear 27 -3 17 -8.6 66 66 WNW 10 17 30.03 1017 10 16.0934 0 0
2:55 am 02:55 Clear 26 -3.1 17 -8.5 67 67 WNW 10 17 30.03 1017 10 16.0934 0 0
3:15 am 03:15 Clear 24 -4.5 17 -8.6 73 73 WNW 10 17 30.06 1018 10 16.0934 0 0
3:35 am 03:35 Clear 24 -4.7 16 -8.8 73 73 WNW 8 13 30.09 1019 10 16.0934 0 0
3:55 am 03:55 Clear 25 -4.1 17 -8.6 71 71 WNW 7 11 30.09 1019 10 16.0934 0 0
4:15 am 04:15 Clear 24 -4.2 16 -8.7 71 71 W 7 11 30.09 1019 10 16.0934 0 0
4:35 am 04:35 Clear 23 -4.8 16 -8.7 74 74 W 9 15 30.12 1020 10 16.0934 0 0
4:55 am 04:55 Clear 27 -3 18 -8 69 69 WNW 12 19 30.09 1019 10 16.0934 0 0
5:15 am 05:15 Clear 28 -2 17 -8.1 63 63 WNW 14 22 30.09 1019 10 16.0934 0 0
5:35 am 05:35 Clear 27 -2.7 17 -8.2 66 66 NW 10 17 30.12 1020 10 16.0934 0 0
5:55 am 05:55 Clear 26 -3.3 17 -8.3 69 69 NW 12 19 30.12 1020 10 16.0934 0 0
6:15 am 06:15 Clear 25 -4.1 17 -8.5 72 72 NW 9 15 30.15 1021 10 16.0934 0 0
6:35 am 06:35 Clear 24 -4.6 17 -8.6 74 74 NW 8 13 30.18 1022 10 16.0934 0 0
6:55 am 06:55 Clear 25 -4 17 -8.6 71 71 WNW 10 17 30.18 1022 10 16.0934 0 0
7:15 am 07:15 Sunny 25 -4.1 17 -8.5 72 72 NW 12 19 30.18 1022 10 16.0934 0 0
7:35 am 07:35 Sunny 26 -3.1 17 -8.5 67 67 WNW 12 19 30.15 1021 10 16.0934 0 0
7:55 am 07:55 Sunny 27 -2.6 17 -8.2 66 66 WNW 9 15 30.18 1022 10 16.0934 0 0
8:15 am 08:15 Sunny 30 -1.1 17 -8.2 59 59 WNW 13 20 30.18 1022 10 16.0934 0 0
8:35 am 08:35 Sunny 32 0 17 -8.2 54 54 NW 18 30 30.21 1023 10 16.0934 0 0
8:55 am 08:55 Sunny 33 0.8 17 -8.5 50 50 WNW 24 39 30.18 1022 10 16.0934 0 0
9:15 am 09:15 Sunny 34 1.2 16 -8.8 48 48 NW 23 37 30.21 1023 10 16.0934 0 0
9:35 am 09:35 Sunny 36 2 17 -8.2 47 47 NW 22 35 30.21 1023 10 16.0934 0 0
9:55 am 09:55 Sunny 36 2.2 18 -7.9 48 48 NW 23 37 30.21 1023 10 16.0934 0 0
10:15 am 10:15 Sunny 37 2.8 18 -7.6 47 47 NNW 14 22 30.21 1023 10 16.0934 0 0
10:35 am 10:35 Sunny 39 3.8 18 -7.8 43 43 NW 20 31 30.21 1023 10 16.0934 0 0
10:55 am 10:55 Sunny 40 4.5 18 -7.8 41 41 NW 22 35 30.21 1023 10 16.0934 0 0
11:15 am 11:15 Sunny 41 4.9 17 -8.3 38 38 NW 20 31 30.21 1023 10 16.0934 0 0
11:35 am 11:35 Sunny 42 5.4 16 -9 35 35 WNW 20 31 30.21 1023 10 16.0934 0 0
11:55 am 11:55 Sunny 42 5.8 15 -9.4 33 33 WNW 23 37 30.21 1023 10 16.0934 0 0
12:15 pm 12:15 Sunny 44 6.6 14 -9.8 30 30 NW 22 35 30.21 1023 10 16.0934 0 0
12:35 pm 12:35 Sunny 44 6.8 14 -10.2 29 29 NNW 18 30 30.21 1023 10 16.0934 0 0
12:55 pm 12:55 Partly Cloudy 43 6.2 12 -11.1 28 28 NW 23 37 30.21 1023 10 16.0934 0 0
1:15 pm 13:15 Mostly Cloudy 45 7.3 10 -12.2 24 24 NW 25 41 30.21 1023 10 16.0934 0 0
1:35 pm 13:35 Partly Cloudy 43 5.9 10 -12.5 26 26 WNW 22 35 30.21 1023 10 16.0934 0 0
1:55 pm 13:55 Partly Cloudy 44 6.6 9 -12.6 24 24 NW 22 35 30.21 1023 10 16.0934 0 0
2:15 pm 14:15 Partly Cloudy 45 7.2 7 -14 21 21 NW 22 35 30.21 1023 10 16.0934 0 0
2:35 pm 14:35 Partly Cloudy 46 7.5 6 -14.4 20 20 NW 23 37 30.18 1022 10 16.0934 0 0
2:55 pm 14:55 Sunny 46 7.9 7 -13.8 20 20 NW 22 35 30.18 1022 10 16.0934 0 0
3:15 pm 15:15 Sunny 46 7.8 7 -13.7 20 20 NW 22 35 30.18 1022 10 16.0934 0 0
3:35 pm 15:35 Sunny 46 7.7 6 -14.7 19 19 NW 22 35 30.18 1022 10 16.0934 0 0
3:55 pm 15:55 Sunny 46 7.5 6 -14.7 19 19 NW 22 35 30.18 1022 10 16.0934 0 0
4:15 pm 16:15 Sunny 46 7.6 6 -14.5 19 19 NW 17 28 30.18 1022 10 16.0934 0 0
4:35 pm 16:35 Sunny 46 7.8 7 -14 20 20 NW 20 31 30.18 1022 10 16.0934 0 0
4:55 pm 16:55 Sunny 45 7.3 5 -14.8 19 19 NW 16 26 30.21 1023 10 16.0934 0 0
5:15 pm 17:15 Sunny 45 7.2 6 -14.5 20 20 NW 15 24 30.21 1023 10 16.0934 0 0
5:35 pm 17:35 Sunny 45 7 7 -13.7 21 21 NW 10 17 30.21 1023 10 16.0934 0 0
5:55 pm 17:55 Cloudy 40 4.3 24 -4.5 53 53 NW 22 35 29.8 1009 10 16.0934 0 0
6:15 pm 18:15 Sunny 41 5.1 8 -13.3 25 25 WNW 8 13 30.24 1024 10 16.0934 0 0
6:35 pm 18:35 Clear 39 3.7 8 -13.2 28 28 WNW 6 9 30.27 1025 10 16.0934 0 0
6:55 pm 18:55 Clear 34 1.3 7 -13.7 32 32 WNW 6 9 30.27 1025 10 16.0934 0 0
7:15 pm 19:15 Clear 35 1.4 8 -13.5 32 32 WNW 3 6 30.27 1025 10 16.0934 0 0
7:35 pm 19:35 Clear 33 0.3 8 -13.5 35 35 WNW 5 7 30.3 1026 10 16.0934 0 0
7:55 pm 19:55 Clear 32 -0.2 8 -13.6 36 36 WNW 5 7 30.3 1026 10 16.0934 0 0
8:15 pm 20:15 Clear 31 -0.5 8 -13.5 37 37 WNW 3 6 30.3 1026 10 16.0934 0 0
8:35 pm 20:35 Clear 31 -0.5 8 -13.1 38 38 W 6 9 30.3 1026 10 16.0934 0 0
8:55 pm 20:55 Clear 30 -1.1 9 -13 40 40 W 5 7 30.33 1027 10 16.0934 0 0
9:15 pm 21:15 Clear 29 -1.8 9 -12.8 43 43 W 6 9 30.36 1028 10 16.0934 0 0
9:35 pm 21:35 Clear 29 -1.8 9 -13 42 42 W 5 7 30.36 1028 10 16.0934 0 0
9:55 pm 21:55 Clear 30 -1.2 9 -12.9 41 41 WSW 3 6 30.33 1027 10 16.0934 0 0
10:15 pm 22:15 Clear 27 -2.8 10 -12.4 48 48 WSW 3 6 30.36 1028 10 16.0934 0 0
10:35 pm 22:35 Clear 28 -2.2 10 -12.2 47 47 WSW 3 6 30.36 1028 10 16.0934 0 0
10:55 pm 22:55 Clear 30 -1.3 9 -12.6 42 42 SW 7 11 30.33 1027 10 16.0934 0 0
11:15 pm 23:15 Clear 27 -2.6 10 -12.5 47 47 WSW 3 6 30.36 1028 10 16.0934 0 0
11:35 pm 23:35 Clear 28 -2 10 -12.5 45 45 WSW 6 9 30.36 1028 10 16.0934 0 0
11:55 pm 23:55 Partly Cloudy 28 -2.2 12 -10.9 52 52 W 9 15 30.36 1028 10 16.0934 0 0

Powered by AerisWeather